Weather History for Kendall, FL

Change the Weather History Date:

Wednesday, May 8, 2013

  Actual Average Record
Temperature  
Mean Temperature 73 °F -  
Max Temperature 89 °F 85 °F 93 °F (1998)
Min Temperature 59 °F 65 °F 48 °F (1992)
Cooling Degree Days 8    
Growing Degree Days 23 (Base 50)    
Moisture  
Dew Point 61 °F    
Average Humidity 68    
Maximum Humidity 100    
Minimum Humidity 37    
Precipitation  
Precipitation 0.00 in - - ()
Sea Level Pressure  
Sea Level Pressure 30.10 in    
Wind  
Wind Speed 4 mph (WNW)    
Max Wind Speed 13 mph    
Max Gust Speed 16 mph    
Visibility 10 miles    
Events      
Averages and records for this station are not official NWS values.
T = Trace of Precipitation, MM = Missing Value Source: NWS Daily Summary

Daily Weather History Graph

Daily Weather History Graph

Search for Another Location

Airport:

Trip Planner

Search our weather history database for the weather conditions in past years. The results will help you decide how hot, cold, wet, or windy it might be!

Date:

Astronomy

May. 08, 2013 Rise Set
Actual Time 6:40 AM EDT 7:56 PM EDT
Civil Twilight 6:15 AM EDT 8:21 PM EDT
Nautical Twilight 5:46 AM EDT 8:50 PM EDT
Astronomical Twilight 5:16 AM EDT 9:20 PM EDT
Moon 5:39 AM EDT (5/8) 6:57 PM EDT (5/8)
Length of Visible Light 14h 05m
Length of Day
13h 16m
Waning Crescent, 2% of the Moon is Illuminated
May 8
Waning Crescent
May 9
New
May 18
First Quarter
May 25
Full
May 31
Last Quarter

Hourly Weather History & Observations

Time (EDT) Temp. Heat Index Dew Point Humidity Pressure Visibility Wind Dir Wind Speed Gust Speed Precip Events Conditions
12:53 AM 66.0 °F - 62.1 °F 87% 30.09 in 10.0 mi West 4.6 mph - N/A   Clear
1:53 AM 63.0 °F - 61.0 °F 93% 30.07 in 10.0 mi WNW 3.5 mph - N/A   Clear
2:53 AM 62.1 °F - 61.0 °F 96% 30.07 in 10.0 mi Calm Calm - N/A   Clear
3:53 AM 63.0 °F - 61.0 °F 93% 30.07 in 10.0 mi Calm Calm - N/A   Clear
4:53 AM 62.1 °F - 60.1 °F 93% 30.09 in 10.0 mi West 3.5 mph - N/A   Clear
5:53 AM 59.0 °F - 57.9 °F 96% 30.09 in 10.0 mi NW 3.5 mph - N/A   Clear
6:53 AM 61.0 °F - 61.0 °F 100% 30.11 in 7.0 mi Calm Calm - N/A   Clear
7:53 AM 68.0 °F - 64.0 °F 87% 30.14 in 10.0 mi Calm Calm - N/A   Clear
8:53 AM 73.0 °F - 62.1 °F 68% 30.14 in 10.0 mi Calm Calm - N/A   Clear
9:53 AM 75.9 °F - 57.9 °F 54% 30.15 in 10.0 mi Variable 4.6 mph - N/A   Clear
10:53 AM 78.1 °F - 60.1 °F 54% 30.15 in 10.0 mi West 4.6 mph - N/A   Clear
11:53 AM 81.0 °F 81.6 °F 60.1 °F 49% 30.14 in 10.0 mi Variable 3.5 mph - N/A   Clear
12:53 PM 82.9 °F 83.2 °F 60.1 °F 46% 30.12 in 10.0 mi West 10.4 mph - N/A   Clear
1:53 PM 86.0 °F 85.4 °F 59.0 °F 40% 30.11 in 10.0 mi Variable 4.6 mph - N/A   Clear
2:53 PM 86.0 °F 84.9 °F 57.0 °F 37% 30.09 in 10.0 mi Variable 4.6 mph - N/A   Clear
3:53 PM 87.1 °F 86.1 °F 57.9 °F 37% 30.07 in 10.0 mi Variable 4.6 mph - N/A   Clear
4:53 PM 87.1 °F 86.7 °F 60.1 °F 40% 30.06 in 10.0 mi WSW 4.6 mph 16.1 mph N/A   Partly Cloudy
5:53 PM 84.0 °F 84.4 °F 61.0 °F 46% 30.06 in 10.0 mi WNW 5.8 mph - N/A   Partly Cloudy
6:53 PM 82.9 °F 83.7 °F 62.1 °F 49% 30.07 in 10.0 mi WNW 12.7 mph - N/A   Clear
7:53 PM 79.0 °F - 62.1 °F 56% 30.08 in 10.0 mi WNW 9.2 mph - N/A   Clear
8:53 PM 73.0 °F - 62.1 °F 68% 30.10 in 10.0 mi West 3.5 mph - N/A   Clear
9:53 PM 71.1 °F - 63.0 °F 75% 30.12 in 10.0 mi WNW 3.5 mph - N/A   Clear
10:53 PM 70.0 °F - 64.0 °F 81% 30.14 in 10.0 mi WNW 4.6 mph - N/A   Clear
11:53 PM 69.1 °F - 64.9 °F 87% 30.14 in 10.0 mi Calm Calm - N/A   Clear